| time (UTC) | temp F | wind direction | speed MPH | gust MPH | rain 1hr in | rain 24hr in | rain mn in | humidity % | barometer mb |
| 20260506175011 | 64 | 209 | 3.0 | 13.0 | 0.00 | 0.00 | 0.00 | 75 | 1016.8 |
| 20260506174505 | 64 | 266 | 5.0 | 13.0 | 0.00 | 0.00 | 0.00 | 75 | 1016.7 |
| 20260506173959 | 66 | 265 | 2.0 | 0.0 | 0.00 | 0.00 | 0.00 | 75 | 1016.8 |
| 20260506173453 | 64 | 280 | 2.0 | 0.0 | 0.00 | 0.00 | 0.00 | 75 | 1016.8 |
| 20260506172947 | 61 | 309 | 3.0 | 0.0 | 0.00 | 0.00 | 0.00 | 75 | 1016.7 |
| 20260506172441 | 62 | 313 | 5.0 | 0.0 | 0.00 | 0.00 | 0.00 | 75 | 1016.7 |
| 20260506171935 | 63 | 325 | 1.0 | 0.0 | 0.00 | 0.00 | 0.00 | 74 | 1016.7 |
| 20260506171429 | 63 | 278 | 3.0 | 14.0 | 0.00 | 0.00 | 0.00 | 74 | 1016.7 |
| 20260506170923 | 61 | 261 | 2.0 | 14.0 | 0.00 | 0.00 | 0.00 | 74 | 1016.7 |
| 20260506170417 | 60 | 277 | 6.0 | 14.0 | 0.00 | 0.00 | 0.00 | 74 | 1016.6 |
| 20260506165911 | 60 | 279 | 8.0 | 16.0 | 0.00 | 0.00 | 0.00 | 74 | 1016.6 |
| 20260506165405 | 59 | 283 | 5.0 | 16.0 | 0.00 | 0.00 | 0.00 | 74 | 1016.7 |
| 20260506164859 | 60 | 293 | 4.0 | 13.0 | 0.00 | 0.00 | 0.00 | 74 | 1016.6 |
| 20260506164353 | 60 | 279 | 5.0 | 14.0 | 0.00 | 0.00 | 0.00 | 74 | 1016.6 |
| 20260506163847 | 60 | 278 | 6.0 | 14.0 | 0.00 | 0.00 | 0.00 | 74 | 1016.5 |
| 20260506163341 | 60 | 272 | 3.0 | 15.0 | 0.00 | 0.00 | 0.00 | 74 | 1016.5 |
| 20260506162835 | 59 | 277 | 8.0 | 15.0 | 0.00 | 0.00 | 0.00 | 74 | 1016.5 |
| 20260506162329 | 60 | 277 | 4.0 | 0.0 | 0.00 | 0.00 | 0.00 | 74 | 1016.5 |
| 20260506161823 | 60 | 285 | 3.0 | 12.0 | 0.00 | 0.00 | 0.00 | 74 | 1016.5 |
| 20260506161317 | 59 | 277 | 4.0 | 12.0 | 0.00 | 0.00 | 0.00 | 74 | 1016.5 |
| 20260506160811 | 59 | 274 | 2.0 | 0.0 | 0.00 | 0.00 | 0.00 | 74 | 1016.5 |
| 20260506160305 | 58 | 291 | 3.0 | 12.0 | 0.00 | 0.00 | 0.00 | 74 | 1016.4 |
| 20260506155759 | 56 | 290 | 5.0 | 12.0 | 0.00 | 0.00 | 0.00 | 74 | 1016.5 |
| 20260506155253 | 56 | 309 | 3.0 | 14.0 | 0.00 | 0.00 | 0.00 | 74 | 1016.5 |
| 20260506154747 | 55 | 306 | 3.0 | 14.0 | 0.00 | 0.00 | 0.00 | 74 | 1016.4 |
| 20260506154241 | 56 | 289 | 6.0 | 11.0 | 0.00 | 0.00 | 0.00 | 73 | 1016.4 |
| 20260506153735 | 56 | 302 | 5.0 | 0.0 | 0.00 | 0.00 | 0.00 | 73 | 1016.4 |
| 20260506153229 | 56 | 302 | 2.0 | 0.0 | 0.00 | 0.00 | 0.00 | 73 | 1016.4 |
| 20260506152723 | 57 | 326 | 1.0 | 0.0 | 0.00 | 0.00 | 0.00 | 73 | 1016.5 |
| 20260506152217 | 56 | 319 | 1.0 | 0.0 | 0.00 | 0.00 | 0.00 | 73 | 1016.5 |
| 20260506151711 | 55 | 316 | 4.0 | 0.0 | 0.00 | 0.00 | 0.00 | 73 | 1016.4 |
| 20260506151205 | 55 | 311 | 4.0 | 0.0 | 0.00 | 0.00 | 0.00 | 73 | 1016.5 |
| 20260506150659 | 55 | 322 | 3.0 | 0.0 | 0.00 | 0.00 | 0.00 | 72 | 1016.5 |
| 20260506150153 | 55 | 313 | 1.0 | 0.0 | 0.00 | 0.00 | 0.00 | 72 | 1016.4 |
| 20260506145647 | 54 | 313 | 2.0 | 0.0 | 0.00 | 0.00 | 0.00 | 72 | 1016.4 |
| 20260506145141 | 54 | 327 | 3.0 | 0.0 | 0.00 | 0.00 | 0.00 | 72 | 1016.4 |
| 20260506144635 | 54 | 320 | 3.0 | 11.0 | 0.00 | 0.00 | 0.00 | 72 | 1016.4 |
| 20260506144129 | 53 | 317 | 5.0 | 11.0 | 0.00 | 0.00 | 0.00 | 72 | 1016.4 |
| 20260506143623 | 53 | 325 | 4.0 | 11.0 | 0.00 | 0.00 | 0.00 | 72 | 1016.4 |
| 20260506143117 | 52 | 325 | 4.0 | 11.0 | 0.00 | 0.00 | 0.00 | 72 | 1016.4 |
| 20260506142611 | 52 | 316 | 6.0 | 11.0 | 0.00 | 0.00 | 0.00 | 72 | 1016.3 |
| 20260506142105 | 52 | 319 | 6.0 | 11.0 | 0.00 | 0.00 | 0.00 | 72 | 1016.3 |
| 20260506141559 | 52 | 318 | 5.0 | 10.0 | 0.00 | 0.00 | 0.00 | 72 | 1016.3 |
| 20260506141053 | 52 | 320 | 4.0 | 0.0 | 0.00 | 0.00 | 0.00 | 71 | 1016.3 |
| 20260506140547 | 52 | 315 | 3.0 | 0.0 | 0.00 | 0.00 | 0.00 | 71 | 1016.1 |
| 20260506140041 | 51 | 306 | 3.0 | 0.0 | 0.00 | 0.00 | 0.00 | 71 | 1016.1 |
| 20260506135535 | 51 | 301 | 2.0 | 0.0 | 0.00 | 0.00 | 0.00 | 71 | 1016.0 |
| 20260506135029 | 50 | 298 | 4.0 | 0.0 | 0.00 | 0.00 | 0.00 | 71 | 1016.0 |
| 20260506134523 | 50 | 297 | 3.0 | 0.0 | 0.00 | 0.00 | 0.00 | 71 | 1015.9 |
| 20260506134017 | 50 | 310 | 3.0 | 0.0 | 0.00 | 0.00 | 0.00 | 71 | 1015.9 |
| 20260506133511 | 50 | 315 | 2.0 | 0.0 | 0.00 | 0.00 | 0.00 | 71 | 1015.8 |
| 20260506133005 | 49 | 322 | 4.0 | 0.0 | 0.00 | 0.00 | 0.00 | 71 | 1015.8 |
| 20260506132459 | 49 | 324 | 3.0 | 0.0 | 0.00 | 0.00 | 0.00 | 71 | 1015.7 |
| 20260506131953 | 49 | 322 | 3.0 | 0.0 | 0.00 | 0.00 | 0.00 | 71 | 1015.8 |
| 20260506131447 | 48 | 315 | 3.0 | 0.0 | 0.00 | 0.00 | 0.00 | 71 | 1015.7 |
| 20260506130941 | 48 | 294 | 1.0 | 0.0 | 0.00 | 0.00 | 0.00 | 71 | 1015.7 |
| 20260506130435 | 48 | 309 | 2.0 | 0.0 | 0.00 | 0.00 | 0.00 | 71 | 1015.7 |
| 20260506125929 | 48 | 313 | 3.0 | 0.0 | 0.00 | 0.00 | 0.00 | 71 | 1015.7 |
| 20260506125423 | 48 | 310 | 4.0 | 0.0 | 0.00 | 0.00 | 0.00 | 71 | 1015.7 |
| 20260506124917 | 48 | 300 | 4.0 | 0.0 | 0.00 | 0.00 | 0.00 | 71 | 1015.7 |
| 20260506124411 | 48 | 306 | 2.0 | 0.0 | 0.00 | 0.00 | 0.00 | 71 | 1015.8 |
| 20260506123905 | 48 | 297 | 4.0 | 0.0 | 0.00 | 0.00 | 0.00 | 71 | 1015.8 |
| 20260506123359 | 48 | 299 | 3.0 | 0.0 | 0.00 | 0.00 | 0.00 | 71 | 1015.8 |
| 20260506122853 | 47 | 305 | 2.0 | 0.0 | 0.00 | 0.00 | 0.00 | 71 | 1015.7 |
| 20260506122347 | 47 | 287 | 0.0 | 0.0 | 0.00 | 0.00 | 0.00 | 71 | 1015.7 |
| 20260506121841 | 48 | 319 | 2.0 | 0.0 | 0.00 | 0.00 | 0.00 | 71 | 1015.7 |
| 20260506121335 | 48 | 316 | 3.0 | 0.0 | 0.00 | 0.00 | 0.00 | 71 | 1015.7 |
| 20260506120829 | 48 | 321 | 2.0 | 0.0 | 0.00 | 0.00 | 0.00 | 72 | 1015.8 |
| 20260506120323 | 48 | 318 | 2.0 | 0.0 | 0.00 | 0.00 | 0.00 | 72 | 1015.8 |
| 20260506115817 | 48 | 314 | 2.0 | 0.0 | 0.00 | 0.00 | 0.00 | 72 | 1015.8 |
| 20260506115311 | 48 | 321 | 2.0 | 0.0 | 0.00 | 0.00 | 0.00 | 72 | 1015.7 |
| 20260506114805 | 48 | 314 | 3.0 | 0.0 | 0.00 | 0.00 | 0.00 | 72 | 1015.7 |
| 20260506114259 | 48 | 316 | 2.0 | 0.0 | 0.00 | 0.00 | 0.00 | 72 | 1015.7 |
| 20260506113753 | 48 | 314 | 2.0 | 0.0 | 0.00 | 0.00 | 0.00 | 72 | 1015.8 |
| 20260506113247 | 48 | 317 | 4.0 | 0.0 | 0.00 | 0.00 | 0.00 | 72 | 1015.7 |
| 20260506112741 | 48 | 317 | 3.0 | 0.0 | 0.00 | 0.00 | 0.00 | 72 | 1015.7 |
| 20260506112235 | 48 | 320 | 2.0 | 0.0 | 0.00 | 0.00 | 0.00 | 72 | 1015.7 |
| 20260506111729 | 48 | 322 | 2.0 | 0.0 | 0.00 | 0.00 | 0.00 | 72 | 1015.7 |
| 20260506111223 | 48 | 320 | 2.0 | 0.0 | 0.00 | 0.00 | 0.00 | 72 | 1015.7 |
| 20260506110717 | 48 | 315 | 1.0 | 0.0 | 0.00 | 0.00 | 0.00 | 72 | 1015.6 |
| 20260506110211 | 48 | 315 | 2.0 | 0.0 | 0.00 | 0.00 | 0.00 | 72 | 1015.6 |
| 20260506105705 | 48 | 319 | 2.0 | 0.0 | 0.00 | 0.00 | 0.00 | 72 | 1015.6 |
| 20260506105159 | 48 | 315 | 1.0 | 0.0 | 0.00 | 0.00 | 0.00 | 72 | 1015.7 |
| 20260506104653 | 48 | 316 | 2.0 | 0.0 | 0.00 | 0.00 | 0.00 | 72 | 1015.7 |
| 20260506104147 | 48 | 328 | 1.0 | 0.0 | 0.00 | 0.00 | 0.00 | 72 | 1015.6 |
| 20260506103641 | 48 | 292 | 1.0 | 0.0 | 0.00 | 0.00 | 0.00 | 72 | 1015.6 |
| 20260506103135 | 48 | 293 | 4.0 | 0.0 | 0.00 | 0.00 | 0.00 | 72 | 1015.6 |
| 20260506102629 | 48 | 286 | 5.0 | 0.0 | 0.00 | 0.00 | 0.00 | 72 | 1015.7 |
| 20260506102123 | 48 | 274 | 2.0 | 0.0 | 0.00 | 0.00 | 0.00 | 72 | 1015.7 |
| 20260506101617 | 48 | 189 | 0.0 | 0.0 | 0.00 | 0.00 | 0.00 | 72 | 1015.7 |
| 20260506101111 | 48 | 268 | 1.0 | 0.0 | 0.00 | 0.00 | 0.00 | 72 | 1015.6 |
| 20260506100605 | 48 | 269 | 4.0 | 11.0 | 0.00 | 0.00 | 0.00 | 72 | 1015.5 |
| 20260506100059 | 48 | 257 | 2.0 | 12.0 | 0.00 | 0.00 | 0.00 | 72 | 1015.6 |
| 20260506095553 | 49 | 254 | 3.0 | 14.0 | 0.00 | 0.00 | 0.00 | 72 | 1015.6 |
| 20260506095047 | 49 | 265 | 5.0 | 16.0 | 0.00 | 0.00 | 0.00 | 72 | 1015.6 |
| 20260506094541 | 49 | 275 | 11.0 | 17.0 | 0.00 | 0.00 | 0.00 | 72 | 1015.5 |
| 20260506094035 | 49 | 281 | 14.0 | 19.0 | 0.00 | 0.00 | 0.00 | 73 | 1015.5 |
| 20260506093529 | 49 | 281 | 14.0 | 19.0 | 0.00 | 0.00 | 0.00 | 73 | 1015.6 |
| 20260506093023 | 49 | 282 | 15.0 | 20.0 | 0.00 | 0.00 | 0.00 | 73 | 1015.5 |
| 20260506092517 | 49 | 278 | 11.0 | 20.0 | 0.00 | 0.00 | 0.00 | 73 | 1015.6 |
| 20260506092011 | 49 | 281 | 12.0 | 22.0 | 0.00 | 0.00 | 0.00 | 73 | 1015.6 |
| 20260506091505 | 49 | 285 | 12.0 | 22.0 | 0.00 | 0.00 | 0.00 | 73 | 1015.6 |
| 20260506090959 | 49 | 286 | 12.0 | 18.0 | 0.00 | 0.00 | 0.00 | 73 | 1015.6 |
| 20260506090453 | 49 | 290 | 8.0 | 18.0 | 0.00 | 0.00 | 0.00 | 73 | 1015.7 |
| 20260506085947 | 49 | 291 | 10.0 | 19.0 | 0.00 | 0.00 | 0.00 | 73 | 1015.7 |
| 20260506085441 | 49 | 288 | 9.0 | 19.0 | 0.00 | 0.00 | 0.00 | 73 | 1015.9 |
| 20260506084935 | 49 | 285 | 8.0 | 20.0 | 0.00 | 0.00 | 0.00 | 73 | 1015.8 |
| 20260506084429 | 49 | 285 | 12.0 | 21.0 | 0.00 | 0.00 | 0.00 | 73 | 1015.9 |
| 20260506083923 | 49 | 286 | 11.0 | 16.0 | 0.00 | 0.00 | 0.00 | 73 | 1015.8 |
| 20260506083417 | 49 | 287 | 9.0 | 19.0 | 0.00 | 0.00 | 0.00 | 73 | 1015.8 |
| 20260506082911 | 49 | 288 | 12.0 | 19.0 | 0.00 | 0.00 | 0.00 | 73 | 1015.8 |
| 20260506082405 | 49 | 290 | 13.0 | 19.0 | 0.00 | 0.00 | 0.00 | 73 | 1015.7 |
| 20260506081859 | 49 | 295 | 10.0 | 18.0 | 0.00 | 0.00 | 0.00 | 73 | 1015.8 |
| 20260506081353 | 49 | 286 | 9.0 | 18.0 | 0.00 | 0.00 | 0.00 | 73 | 1015.8 |
| 20260506080847 | 49 | 290 | 11.0 | 21.0 | 0.00 | 0.00 | 0.00 | 73 | 1015.8 |
| 20260506080341 | 49 | 289 | 13.0 | 20.0 | 0.00 | 0.00 | 0.00 | 73 | 1015.7 |
| 20260506073305 | 49 | 289 | 12.0 | 22.0 | 0.00 | 0.00 | 0.00 | 74 | 1015.8 |
| 20260506072759 | 49 | 290 | 10.0 | 20.0 | 0.00 | 0.00 | 0.00 | 74 | 1015.8 |
| 20260506072253 | 49 | 287 | 11.0 | 20.0 | 0.00 | 0.00 | 0.00 | 74 | 1015.7 |
| 20260506071747 | 49 | 290 | 13.0 | 19.0 | 0.00 | 0.00 | 0.00 | 74 | 1015.6 |
| 20260506071241 | 49 | 293 | 11.0 | 18.0 | 0.00 | 0.00 | 0.00 | 74 | 1015.7 |
| 20260506070735 | 49 | 290 | 11.0 | 17.0 | 0.00 | 0.00 | 0.00 | 74 | 1015.7 |
| 20260506070229 | 49 | 292 | 9.0 | 16.0 | 0.00 | 0.00 | 0.00 | 74 | 1015.6 |
| 20260506062141 | 49 | 306 | 6.0 | 15.0 | 0.00 | 0.00 | 0.00 | 74 | 1015.5 |
| 20260506061635 | 49 | 305 | 7.0 | 15.0 | 0.00 | 0.00 | 0.00 | 74 | 1015.4 |
| 20260506061129 | 49 | 304 | 5.0 | 14.0 | 0.00 | 0.00 | 0.00 | 74 | 1015.4 |
| 20260506060623 | 49 | 293 | 5.0 | 14.0 | 0.00 | 0.00 | 0.00 | 74 | 1015.5 |
| 20260506060117 | 49 | 314 | 3.0 | 13.0 | 0.00 | 0.00 | 0.00 | 74 | 1015.5 |
| 20260506051017 | 49 | 294 | 9.0 | 20.0 | 0.00 | 0.00 | 0.00 | 74 | 1015.3 |
| 20260506050511 | 49 | 303 | 10.0 | 19.0 | 0.00 | 0.00 | 0.00 | 74 | 1015.3 |
| 20260506044953 | 49 | 295 | 11.0 | 24.0 | 0.00 | 0.00 | 0.00 | 75 | 1014.9 |
| 20260506044447 | 49 | 294 | 12.0 | 22.0 | 0.00 | 0.00 | 0.00 | 75 | 1014.8 |
| 20260506043941 | 49 | 295 | 11.0 | 22.0 | 0.00 | 0.00 | 0.00 | 75 | 1014.9 |
| 20260506043435 | 49 | 293 | 10.0 | 19.0 | 0.00 | 0.00 | 0.00 | 75 | 1014.9 |
| 20260506042929 | 49 | 293 | 8.0 | 22.0 | 0.00 | 0.00 | 0.00 | 75 | 1014.9 |
| 20260506042423 | 49 | 288 | 10.0 | 22.0 | 0.00 | 0.00 | 0.00 | 75 | 1014.8 |
| 20260506041917 | 49 | 293 | 8.0 | 18.0 | 0.00 | 0.00 | 0.00 | 75 | 1014.8 |
| 20260506041411 | 49 | 290 | 11.0 | 18.0 | 0.00 | 0.00 | 0.00 | 75 | 1014.6 |
| 20260506040905 | 49 | 292 | 12.0 | 21.0 | 0.00 | 0.00 | 0.00 | 75 | 1014.6 |
| 20260506040359 | 49 | 286 | 12.0 | 22.0 | 0.00 | 0.00 | 0.00 | 75 | 1014.5 |
| 20260506035853 | 49 | 286 | 14.0 | 22.0 | 0.00 | 0.00 | 0.00 | 75 | 1014.5 |
| 20260506035347 | 49 | 288 | 16.0 | 23.0 | 0.00 | 0.00 | 0.00 | 75 | 1014.3 |
| 20260506034841 | 49 | 287 | 17.0 | 23.0 | 0.00 | 0.00 | 0.00 | 75 | 1014.2 |
| 20260506034335 | 49 | 286 | 16.0 | 27.0 | 0.00 | 0.00 | 0.00 | 75 | 1014.2 |
| 20260506033829 | 49 | 284 | 17.0 | 27.0 | 0.00 | 0.00 | 0.00 | 75 | 1014.1 |
| 20260506033323 | 49 | 288 | 15.0 | 27.0 | 0.00 | 0.00 | 0.00 | 75 | 1014.2 |
| 20260506032817 | 49 | 287 | 15.0 | 24.0 | 0.00 | 0.00 | 0.00 | 75 | 1014.2 |
| 20260506032311 | 49 | 287 | 17.0 | 24.0 | 0.00 | 0.00 | 0.00 | 76 | 1014.2 |
| 20260506031805 | 49 | 284 | 15.0 | 24.0 | 0.00 | 0.00 | 0.00 | 76 | 1014.2 |
| 20260506031259 | 49 | 287 | 13.0 | 24.0 | 0.00 | 0.00 | 0.00 | 76 | 1014.2 |
| 20260506030753 | 50 | 292 | 11.0 | 20.0 | 0.00 | 0.00 | 0.00 | 76 | 1014.1 |
| 20260506030247 | 50 | 288 | 13.0 | 22.0 | 0.00 | 0.00 | 0.00 | 76 | 1014.0 |
| 20260506025741 | 50 | 285 | 12.0 | 22.0 | 0.00 | 0.00 | 0.00 | 76 | 1013.8 |
| 20260506025235 | 50 | 283 | 13.0 | 22.0 | 0.00 | 0.00 | 0.00 | 76 | 1013.8 |
| 20260506024729 | 50 | 290 | 11.0 | 23.0 | 0.00 | 0.00 | 0.00 | 76 | 1013.8 |
| 20260506024223 | 50 | 284 | 13.0 | 23.0 | 0.00 | 0.00 | 0.00 | 76 | 1013.8 |
| 20260506023717 | 50 | 287 | 12.0 | 23.0 | 0.00 | 0.00 | 0.00 | 76 | 1013.8 |
| 20260506023211 | 50 | 287 | 16.0 | 24.0 | 0.00 | 0.00 | 0.00 | 76 | 1013.7 |
| 20260506022705 | 50 | 285 | 15.0 | 24.0 | 0.00 | 0.00 | 0.00 | 76 | 1013.7 |
| 20260506022159 | 50 | 287 | 13.0 | 23.0 | 0.00 | 0.00 | 0.00 | 76 | 1013.6 |
| 20260506021653 | 50 | 289 | 16.0 | 20.0 | 0.00 | 0.00 | 0.00 | 76 | 1013.5 |
| 20260506021147 | 50 | 282 | 14.0 | 25.0 | 0.00 | 0.00 | 0.00 | 76 | 1013.4 |
| 20260506020641 | 50 | 282 | 13.0 | 25.0 | 0.00 | 0.00 | 0.00 | 76 | 1013.3 |
| 20260506020135 | 51 | 272 | 13.0 | 25.0 | 0.00 | 0.00 | 0.00 | 76 | 1013.2 |
| 20260506015629 | 51 | 282 | 15.0 | 23.0 | 0.00 | 0.00 | 0.00 | 76 | 1013.2 |
| 20260506015123 | 51 | 278 | 11.0 | 22.0 | 0.00 | 0.00 | 0.00 | 76 | 1013.2 |
| 20260506014617 | 51 | 279 | 10.0 | 21.0 | 0.00 | 0.00 | 0.00 | 76 | 1013.3 |
| 20260506014111 | 52 | 280 | 11.0 | 21.0 | 0.00 | 0.00 | 0.00 | 76 | 1013.4 |
| 20260506013605 | 52 | 269 | 7.0 | 22.0 | 0.00 | 0.00 | 0.00 | 76 | 1013.3 |
| 20260506013059 | 52 | 276 | 10.0 | 22.0 | 0.00 | 0.00 | 0.00 | 76 | 1013.3 |
| 20260506012553 | 53 | 273 | 10.0 | 22.0 | 0.00 | 0.00 | 0.00 | 76 | 1013.3 |
| 20260506012047 | 53 | 275 | 10.0 | 23.0 | 0.00 | 0.00 | 0.00 | 76 | 1013.3 |
| 20260506011541 | 53 | 275 | 10.0 | 23.0 | 0.00 | 0.00 | 0.00 | 76 | 1013.2 |
| 20260506011035 | 52 | 284 | 16.0 | 18.0 | 0.00 | 0.00 | 0.00 | 76 | 1013.2 |
| 20260506010529 | 52 | 285 | 16.0 | 21.0 | 0.00 | 0.00 | 0.00 | 76 | 1013.2 |
| 20260506010023 | 54 | 278 | 11.0 | 21.0 | 0.00 | 0.00 | 0.00 | 76 | 1013.2 |
| 20260506005517 | 54 | 277 | 9.0 | 23.0 | 0.00 | 0.00 | 0.00 | 76 | 1013.2 |
| 20260506005011 | 53 | 281 | 13.0 | 23.0 | 0.00 | 0.00 | 0.00 | 76 | 1013.1 |
| 20260506004505 | 54 | 283 | 14.0 | 23.0 | 0.00 | 0.00 | 0.00 | 76 | 1013.1 |
| 20260506004000 | 55 | 278 | 12.0 | 23.0 | 0.00 | 0.00 | 0.00 | 76 | 1012.9 |
| 20260506003453 | 54 | 284 | 13.0 | 24.0 | 0.00 | 0.00 | 0.00 | 76 | 1013.0 |
| 20260506002947 | 56 | 275 | 10.0 | 24.0 | 0.00 | 0.00 | 0.00 | 76 | 1013.0 |
| 20260506002441 | 56 | 277 | 10.0 | 23.0 | 0.00 | 0.00 | 0.00 | 77 | 1013.1 |
| 20260506001935 | 55 | 282 | 15.0 | 23.0 | 0.00 | 0.00 | 0.00 | 77 | 1013.0 |
| 20260506001429 | 55 | 284 | 13.0 | 23.0 | 0.00 | 0.00 | 0.00 | 76 | 1012.9 |
| 20260506000923 | 55 | 284 | 13.0 | 25.0 | 0.00 | 0.00 | 0.00 | 76 | 1013.0 |
| 20260506000417 | 54 | 289 | 17.0 | 25.0 | 0.00 | 0.00 | 0.00 | 76 | 1013.0 |
| 20260505235911 | 56 | 284 | 12.0 | 19.0 | 0.00 | 0.00 | 0.00 | 76 | 1012.9 |
| 20260505235405 | 56 | 282 | 11.0 | 24.0 | 0.00 | 0.00 | 0.00 | 77 | 1012.9 |
| 20260505234859 | 55 | 284 | 18.0 | 24.0 | 0.00 | 0.00 | 0.00 | 77 | 1012.8 |
| 20260505234353 | 58 | 281 | 12.0 | 20.0 | 0.00 | 0.00 | 0.00 | 77 | 1012.8 |
| 20260505233847 | 57 | 283 | 13.0 | 25.0 | 0.00 | 0.00 | 0.00 | 76 | 1012.9 |
| 20260505233341 | 56 | 285 | 13.0 | 25.0 | 0.00 | 0.00 | 0.00 | 76 | 1012.8 |
| 20260505232835 | 57 | 285 | 14.0 | 27.0 | 0.00 | 0.00 | 0.00 | 76 | 1012.9 |
| 20260505232329 | 57 | 286 | 13.0 | 27.0 | 0.00 | 0.00 | 0.00 | 77 | 1013.0 |
| 20260505231823 | 56 | 288 | 13.0 | 24.0 | 0.00 | 0.00 | 0.00 | 77 | 1013.0 |
| 20260505231317 | 57 | 288 | 15.0 | 20.0 | 0.00 | 0.00 | 0.00 | 76 | 1012.9 |
| 20260505230811 | 60 | 284 | 9.0 | 20.0 | 0.00 | 0.00 | 0.00 | 76 | 1013.0 |
| 20260505230305 | 59 | 283 | 8.0 | 22.0 | 0.00 | 0.00 | 0.00 | 76 | 1013.2 |
| 20260505225759 | 57 | 287 | 15.0 | 22.0 | 0.00 | 0.00 | 0.00 | 77 | 1013.1 |
| 20260505225253 | 59 | 281 | 8.0 | 19.0 | 0.00 | 0.00 | 0.00 | 76 | 1013.2 |
| 20260505224747 | 59 | 279 | 9.0 | 21.0 | 0.00 | 0.00 | 0.00 | 76 | 1013.2 |
| 20260505224241 | 59 | 285 | 10.0 | 21.0 | 0.00 | 0.00 | 0.00 | 76 | 1013.2 |
| 20260505223735 | 60 | 280 | 9.0 | 16.0 | 0.00 | 0.00 | 0.00 | 76 | 1013.3 |
| 20260505223229 | 60 | 281 | 8.0 | 17.0 | 0.00 | 0.00 | 0.00 | 77 | 1013.3 |
| 20260505222723 | 60 | 280 | 10.0 | 20.0 | 0.00 | 0.00 | 0.00 | 77 | 1013.3 |
| 20260505222217 | 59 | 279 | 9.0 | 21.0 | 0.00 | 0.00 | 0.00 | 76 | 1013.4 |
| 20260505221711 | 59 | 278 | 10.0 | 21.0 | 0.00 | 0.00 | 0.00 | 76 | 1013.4 |
| 20260505221205 | 60 | 270 | 7.0 | 28.0 | 0.00 | 0.00 | 0.00 | 76 | 1013.5 |
| 20260505220659 | 59 | 273 | 9.0 | 28.0 | 0.00 | 0.00 | 0.00 | 76 | 1013.5 |
| 20260505220153 | 59 | 283 | 10.0 | 24.0 | 0.00 | 0.00 | 0.00 | 76 | 1013.5 |
| 20260505215647 | 59 | 274 | 8.0 | 24.0 | 0.00 | 0.00 | 0.00 | 76 | 1013.5 |
| 20260505215141 | 59 | 275 | 9.0 | 24.0 | 0.00 | 0.00 | 0.00 | 76 | 1013.5 |
| 20260505214635 | 59 | 273 | 10.0 | 23.0 | 0.00 | 0.00 | 0.00 | 76 | 1013.6 |
| 20260505214129 | 60 | 279 | 10.0 | 22.0 | 0.00 | 0.00 | 0.00 | 76 | 1013.6 |
| 20260505213624 | 59 | 269 | 9.0 | 22.0 | 0.00 | 0.00 | 0.00 | 76 | 1013.7 |
| 20260505213117 | 60 | 283 | 8.0 | 23.0 | 0.00 | 0.00 | 0.00 | 76 | 1013.8 |
| 20260505212611 | 59 | 271 | 9.0 | 23.0 | 0.00 | 0.00 | 0.00 | 76 | 1013.6 |
| 20260505212105 | 58 | 272 | 9.0 | 25.0 | 0.00 | 0.00 | 0.00 | 76 | 1013.8 |
| 20260505211559 | 59 | 278 | 10.0 | 24.0 | 0.00 | 0.00 | 0.00 | 76 | 1013.7 |
| 20260505211053 | 59 | 259 | 8.0 | 24.0 | 0.00 | 0.00 | 0.00 | 76 | 1013.8 |
| 20260505210547 | 58 | 277 | 14.0 | 22.0 | 0.00 | 0.00 | 0.00 | 76 | 1013.7 |
| 20260505210041 | 59 | 278 | 11.0 | 26.0 | 0.00 | 0.00 | 0.00 | 76 | 1013.7 |
| 20260505205535 | 59 | 281 | 13.0 | 26.0 | 0.00 | 0.00 | 0.00 | 76 | 1013.8 |
| 20260505205029 | 60 | 272 | 9.0 | 22.0 | 0.00 | 0.00 | 0.00 | 76 | 1013.7 |
| 20260505204523 | 58 | 285 | 14.0 | 22.0 | 0.00 | 0.00 | 0.00 | 76 | 1013.6 |
| 20260505204017 | 59 | 282 | 15.0 | 25.0 | 0.00 | 0.00 | 0.00 | 76 | 1013.6 |
| 20260505203511 | 59 | 287 | 13.0 | 25.0 | 0.00 | 0.00 | 0.00 | 76 | 1013.7 |
| 20260505203005 | 60 | 274 | 10.0 | 23.0 | 0.00 | 0.00 | 0.00 | 76 | 1013.7 |
| 20260505202459 | 60 | 276 | 9.0 | 23.0 | 0.00 | 0.00 | 0.00 | 76 | 1013.6 |
| 20260505201953 | 61 | 272 | 7.0 | 21.0 | 0.00 | 0.00 | 0.00 | 76 | 1013.8 |
| 20260505201447 | 60 | 272 | 8.0 | 21.0 | 0.00 | 0.00 | 0.00 | 76 | 1013.8 |
| 20260505200941 | 60 | 281 | 8.0 | 16.0 | 0.00 | 0.00 | 0.00 | 76 | 1013.8 |
| 20260505200435 | 61 | 283 | 5.0 | 14.0 | 0.00 | 0.00 | 0.00 | 76 | 1013.9 |
| 20260505195929 | 61 | 286 | 5.0 | 14.0 | 0.00 | 0.00 | 0.00 | 76 | 1013.9 |
| 20260505195423 | 61 | 278 | 6.0 | 14.0 | 0.00 | 0.00 | 0.00 | 76 | 1013.9 |
| 20260505194917 | 59 | 282 | 6.0 | 18.0 | 0.00 | 0.00 | 0.00 | 76 | 1013.8 |
| 20260505194411 | 59 | 308 | 4.0 | 20.0 | 0.00 | 0.00 | 0.00 | 75 | 1013.9 |
| 20260505193905 | 58 | 288 | 10.0 | 20.0 | 0.00 | 0.00 | 0.00 | 75 | 1013.9 |
| 20260505193359 | 62 | 283 | 4.0 | 16.0 | 0.00 | 0.00 | 0.00 | 76 | 1013.9 |
| 20260505192853 | 61 | 270 | 5.0 | 16.0 | 0.00 | 0.00 | 0.00 | 76 | 1014.0 |
| 20260505192347 | 59 | 282 | 5.0 | 18.0 | 0.00 | 0.00 | 0.00 | 76 | 1013.9 |
| 20260505191841 | 58 | 292 | 9.0 | 18.0 | 0.00 | 0.00 | 0.00 | 75 | 1013.9 |
| 20260505191335 | 61 | 285 | 6.0 | 13.0 | 0.00 | 0.00 | 0.00 | 75 | 1013.8 |
| 20260505190829 | 60 | 313 | 3.0 | 20.0 | 0.00 | 0.00 | 0.00 | 75 | 1013.9 |
| 20260505190323 | 58 | 278 | 6.0 | 20.0 | 0.00 | 0.00 | 0.00 | 76 | 1013.9 |
| 20260505185817 | 58 | 302 | 6.0 | 19.0 | 0.00 | 0.00 | 0.00 | 75 | 1013.9 |
| 20260505185311 | 57 | 282 | 8.0 | 19.0 | 0.00 | 0.00 | 0.00 | 75 | 1013.8 |
| 20260505184805 | 55 | 286 | 12.0 | 18.0 | 0.00 | 0.00 | 0.00 | 75 | 1013.8 |
| 20260505184259 | 58 | 277 | 8.0 | 18.0 | 0.00 | 0.00 | 0.00 | 75 | 1013.8 |
| 20260505183753 | 58 | 278 | 8.0 | 16.0 | 0.00 | 0.00 | 0.00 | 75 | 1013.8 |
| 20260505183247 | 58 | 299 | 5.0 | 16.0 | 0.00 | 0.00 | 0.00 | 75 | 1013.9 |
| 20260505182741 | 59 | 282 | 9.0 | 16.0 | 0.00 | 0.00 | 0.00 | 75 | 1013.9 |
| 20260505182235 | 60 | 290 | 3.0 | 16.0 | 0.00 | 0.00 | 0.00 | 75 | 1013.9 |
| 20260505181729 | 60 | 288 | 5.0 | 15.0 | 0.00 | 0.00 | 0.00 | 75 | 1013.9 |
| 20260505181223 | 61 | 293 | 4.0 | 11.0 | 0.00 | 0.00 | 0.00 | 75 | 1013.7 |
| 20260505180717 | 60 | 293 | 3.0 | 11.0 | 0.00 | 0.00 | 0.00 | 75 | 1013.8 |
| 20260505180211 | 59 | 324 | 2.0 | 11.0 | 0.00 | 0.00 | 0.00 | 75 | 1013.7 |
| 20260505175705 | 59 | 310 | 2.0 | 13.0 | 0.00 | 0.00 | 0.00 | 75 | 1013.7 |
| 20260505175159 | 59 | 316 | 6.0 | 16.0 | 0.00 | 0.00 | 0.00 | 75 | 1013.6 |